Starlink 30954

operational
NORAD ID: 58407 Int'l Des: 2023-180 Owner: SPXS Country: US Constellation: starlink
LEOCIRCULAR

Starlink 30954について

説明を読み込み中...

リアルタイム位置

3D地球を読み込み中...

次回通過

高度履歴

Altitude vs Time

uPlot chart will show altitude changes over time

軌道要素

1 58407U 23180F 25352.74998860 .00000382 00000-0 43374-4 0 9994
2 58407 43.0026 135.4871 0001226 267.0210 93.0493 15.02536511115418
Epoch: Dec 18, 2025 • Age: 11 hours

現在のステータス

高度 558.8 km
速度 7.58 km/s
衛星直下点 0.24°N, 32.39°W
打ち上げ日 Nov 22, 2023
運用期間 2 years
タイプ internet

技術仕様

分類 Payload
質量 730.00 kg
乾燥質量 700.00 kg
総質量 730.00 kg
長さ 0.30 m
直径 4.10 m
スパン 29.00 m
形状 Box + pan
製造者 SPXS
バスタイプ Starlink V2M
フェーズステータス In Orbit
所有者/国 SPXS/US

大規模コンステレーション

Loading constellations...